Precipitable_Water
1.11 1.11 1.17 1.21 1.25 1.24 1.26 1.29 1.32 1.35 1.36 1.37 1.36 1.36 1.38 1.39 1.40 1.41 1.45 1.47 1.47 1.48 1.53 1.55 1.53 1.52 1.50 1.47 1.42 1.52 1.46 1.44 1.39 1.28 1.27 1.30 1.18 1.17 1.31 1.28 1.29 1.22 1.24 1.24 1.19 1.07 1.01 0.95 1.00 1.16 1.17 1.19 1.20 1.22 1.27 1.27 1.26 1.25 1.26 1.29 1.28 1.30 1.29
1.12 1.13 1.17 1.19 1.17 1.21 1.20 1.24 1.27 1.30 1.32 1.33 1.34 1.35 1.38 1.40 1.42 1.41 1.44 1.47 1.44 1.49 1.58 1.58 1.59 1.55 1.48 1.43 1.41 1.49 1.44 1.47 1.45 1.40 1.36 1.30 1.28 1.27 1.29 1.27 1.23 1.17 1.22 1.16 1.19 1.16 1.06 0.94 0.95 1.01 1.03 1.16 1.16 1.19 1.21 1.27 1.33 1.31 1.31 1.26 1.32 1.31 1.27
1.12 1.12 1.14 1.13 1.15 1.19 1.16 1.19 1.22 1.24 1.23 1.27 1.34 1.37 1.36 1.38 1.38 1.39 1.42 1.42 1.45 1.50 1.55 1.57 1.59 1.54 1.51 1.49 1.48 1.53 1.53 1.51 1.48 1.46 1.41 1.38 1.37 1.39 1.35 1.29 1.20 1.19 1.15 1.09 1.12 1.13 1.06 1.08 0.93 0.98 1.02 0.99 0.95 1.07 1.20 1.23 1.29 1.27 1.29 1.30 1.25 1.27 1.27
1.06 1.07 1.07 1.10 1.15 1.16 1.14 1.16 1.21 1.23 1.26 1.25 1.30 1.33 1.32 1.34 1.34 1.39 1.41 1.41 1.42 1.55 1.65 1.67 1.57 1.54 1.53 1.50 1.49 1.53 1.53 1.47 1.44 1.46 1.47 1.39 1.46 1.40 1.37 1.31 1.23 1.18 1.09 1.05 1.10 1.10 1.03 0.97 0.96 0.93 1.04 1.05 1.01 0.99 1.12 1.22 1.26 1.28 1.25 1.27 1.24 1.22 1.26
1.06 1.05 1.05 1.05 1.09 1.09 1.11 1.13 1.20 1.23 1.25 1.27 1.28 1.27 1.29 1.33 1.34 1.36 1.38 1.38 1.37 1.40 1.45 1.58 1.53 1.53 1.55 1.52 1.48 1.46 1.49 1.49 1.47 1.47 1.48 1.39 1.43 1.39 1.37 1.32 1.27 1.27 1.21 1.21 1.23 1.18 1.09 1.03 0.99 0.95 0.98 1.07 1.05 1.06 1.19 1.22 1.27 1.23 1.23 1.21 1.21 1.23 1.24
1.14 1.14 1.12 1.12 1.15 1.14 1.15 1.14 1.17 1.20 1.27 1.23 1.23 1.21 1.23 1.27 1.31 1.31 1.34 1.33 1.35 1.38 1.41 1.46 1.49 1.53 1.53 1.51 1.44 1.42 1.47 1.46 1.45 1.47 1.45 1.43 1.43 1.36 1.33 1.35 1.30 1.27 1.24 1.28 1.26 1.23 1.21 1.11 1.06 0.95 1.02 1.09 0.98 1.01 1.14 1.14 1.14 1.17 1.18 1.20 1.23 1.22 1.24
1.18 1.19 1.19 1.17 1.18 1.19 1.18 1.16 1.16 1.15 1.28 1.23 1.29 1.20 1.21 1.24 1.27 1.29 1.33 1.36 1.39 1.42 1.43 1.45 1.47 1.48 1.49 1.47 1.44 1.42 1.45 1.48 1.53 1.50 1.46 1.49 1.46 1.39 1.37 1.33 1.28 1.28 1.31 1.36 1.38 1.32 1.19 1.05 1.00 1.00 0.98 0.97 1.00 1.01 1.11 1.12 1.15 1.07 1.13 1.14 1.23 1.22 1.21
1.16 1.15 1.19 1.19 1.17 1.16 1.20 1.21 1.21 1.18 1.12 1.25 1.34 1.31 1.25 1.26 1.28 1.29 1.29 1.32 1.38 1.41 1.45 1.46 1.50 1.52 1.53 1.49 1.46 1.48 1.51 1.50 1.55 1.55 1.55 1.47 1.40 1.37 1.38 1.32 1.28 1.30 1.32 1.36 1.39 1.24 1.17 1.14 1.10 1.02 0.97 0.90 0.92 0.98 1.01 1.05 1.11 1.05 1.06 1.09 1.18 1.17 1.20
1.13 1.13 1.15 1.18 1.20 1.23 1.21 1.20 1.21 1.21 1.21 1.19 1.30 1.38 1.39 1.33 1.28 1.27 1.28 1.29 1.33 1.38 1.43 1.47 1.51 1.51 1.52 1.48 1.47 1.47 1.44 1.48 1.51 1.45 1.46 1.45 1.40 1.39 1.34 1.34 1.34 1.32 1.38 1.40 1.37 1.34 1.33 1.23 1.09 1.08 1.04 0.98 0.87 0.83 0.89 0.88 0.93 0.98 1.09 1.02 1.11 1.20 1.20
1.06 1.06 1.09 1.12 1.15 1.18 1.20 1.22 1.22 1.24 1.24 1.24 1.18 1.31 1.47 1.35 1.35 1.31 1.30 1.29 1.29 1.34 1.39 1.43 1.48 1.53 1.54 1.51 1.48 1.45 1.43 1.47 1.50 1.42 1.44 1.43 1.42 1.40 1.36 1.32 1.34 1.35 1.36 1.34 1.36 1.40 1.32 1.21 1.20 1.15 1.09 0.99 0.96 0.88 0.81 0.82 0.92 0.91 1.00 1.08 1.00 1.10 1.21
1.05 1.06 1.09 1.10 1.14 1.15 1.19 1.21 1.24 1.25 1.27 1.30 1.27 1.18 1.31 1.38 1.35 1.31 1.30 1.32 1.33 1.34 1.36 1.39 1.42 1.47 1.52 1.52 1.53 1.51 1.50 1.52 1.45 1.43 1.43 1.45 1.44 1.43 1.35 1.29 1.32 1.33 1.36 1.32 1.32 1.33 1.27 1.28 1.21 1.12 1.11 1.12 1.10 0.96 0.92 0.85 0.88 0.98 1.01 1.10 1.11 1.09 1.15
1.02 1.05 1.07 1.07 1.08 1.09 1.13 1.18 1.20 1.23 1.26 1.28 1.35 1.29 1.28 1.31 1.33 1.30 1.31 1.33 1.35 1.33 1.34 1.36 1.39 1.43 1.47 1.50 1.53 1.54 1.49 1.51 1.45 1.41 1.43 1.43 1.43 1.41 1.35 1.31 1.35 1.37 1.39 1.31 1.33 1.40 1.35 1.27 1.21 1.20 1.16 1.19 1.10 1.06 1.06 1.02 0.91 1.08 1.07 0.99 1.08 1.19 1.19
0.96 0.96 0.97 0.99 1.01 1.05 1.09 1.14 1.19 1.21 1.22 1.26 1.26 1.36 1.32 1.28 1.28 1.29 1.29 1.32 1.33 1.35 1.34 1.36 1.38 1.39 1.40 1.40 1.47 1.50 1.50 1.46 1.40 1.37 1.38 1.42 1.42 1.39 1.34 1.30 1.35 1.35 1.34 1.35 1.39 1.33 1.25 1.26 1.26 1.18 1.15 1.13 1.11 1.12 1.14 1.05 0.93 1.04 1.13 1.09 1.12 1.16 1.23
0.85 0.88 0.89 0.91 0.93 0.98 1.04 1.08 1.13 1.19 1.25 1.26 1.25 1.30 1.32 1.27 1.29 1.28 1.28 1.29 1.31 1.34 1.35 1.35 1.37 1.38 1.41 1.42 1.43 1.51 1.44 1.45 1.39 1.37 1.39 1.40 1.40 1.40 1.37 1.33 1.36 1.37 1.42 1.31 1.32 1.27 1.26 1.27 1.28 1.24 1.19 1.14 1.14 1.19 1.18 1.08 1.07 1.01 1.06 1.12 1.16 1.17 1.22
0.82 0.83 0.82 0.84 0.85 0.89 0.93 1.00 1.07 1.12 1.15 1.21 1.26 1.24 1.26 1.30 1.32 1.24 1.30 1.25 1.29 1.33 1.35 1.36 1.36 1.37 1.35 1.38 1.41 1.45 1.40 1.45 1.41 1.41 1.43 1.38 1.38 1.37 1.37 1.35 1.32 1.34 1.39 1.34 1.30 1.28 1.23 1.23 1.25 1.20 1.15 1.10 1.10 1.17 1.23 1.07 1.01 0.97 0.92 1.08 1.09 1.16 1.21
0.77 0.77 0.77 0.78 0.79 0.81 0.85 0.90 0.98 1.03 1.09 1.16 1.21 1.23 1.24 1.26 1.32 1.31 1.26 1.29 1.31 1.36 1.39 1.37 1.35 1.37 1.34 1.35 1.37 1.38 1.43 1.40 1.42 1.40 1.38 1.38 1.38 1.38 1.35 1.34 1.33 1.34 1.31 1.27 1.33 1.31 1.26 1.20 1.20 1.15 1.13 1.11 1.07 1.19 1.17 1.13 1.08 0.94 0.96 0.99 1.09 1.06 1.11
0.75 0.75 0.74 0.76 0.77 0.79 0.82 0.85 0.90 0.93 1.00 1.10 1.15 1.20 1.23 1.25 1.27 1.29 1.27 1.22 1.26 1.30 1.30 1.35 1.42 1.43 1.39 1.37 1.38 1.38 1.38 1.39 1.41 1.41 1.38 1.39 1.41 1.38 1.32 1.30 1.31 1.32 1.28 1.38 1.36 1.29 1.27 1.25 1.20 1.15 1.12 1.13 1.14 1.20 1.17 1.19 1.12 1.05 1.08 0.94 1.02 1.04 1.11
0.73 0.74 0.73 0.74 0.75 0.78 0.80 0.82 0.84 0.85 0.90 0.96 1.06 1.15 1.20 1.25 1.26 1.27 1.33 1.32 1.29 1.28 1.27 1.36 1.42 1.37 1.41 1.40 1.40 1.45 1.42 1.38 1.39 1.38 1.39 1.39 1.41 1.37 1.32 1.27 1.28 1.27 1.24 1.29 1.30 1.24 1.27 1.21 1.17 1.16 1.16 1.19 1.24 1.25 1.20 1.13 1.12 1.15 1.07 1.02 1.02 1.05 1.11
0.72 0.73 0.73 0.73 0.73 0.75 0.77 0.79 0.80 0.82 0.85 0.86 0.94 1.05 1.13 1.20 1.26 1.33 1.36 1.35 1.33 1.28 1.30 1.31 1.38 1.43 1.40 1.42 1.39 1.38 1.39 1.36 1.36 1.38 1.41 1.38 1.40 1.39 1.33 1.27 1.26 1.27 1.26 1.26 1.25 1.26 1.27 1.21 1.16 1.17 1.18 1.24 1.29 1.20 1.17 1.15 1.16 1.10 1.09 1.05 1.03 1.00 1.04
0.72 0.72 0.72 0.72 0.73 0.73 0.73 0.75 0.77 0.79 0.82 0.83 0.86 0.93 1.01 1.09 1.19 1.25 1.31 1.36 1.37 1.36 1.34 1.31 1.33 1.34 1.38 1.40 1.37 1.36 1.35 1.34 1.32 1.33 1.36 1.42 1.45 1.43 1.39 1.34 1.30 1.29 1.26 1.28 1.29 1.26 1.23 1.24 1.19 1.17 1.20 1.22 1.20 1.15 1.14 1.15 1.14 1.08 1.09 1.07 1.06 1.04 1.02
0.71 0.71 0.71 0.71 0.71 0.71 0.71 0.71 0.73 0.75 0.78 0.80 0.82 0.86 0.91 0.97 1.06 1.16 1.24 1.32 1.38 1.39 1.33 1.31 1.28 1.28 1.30 1.36 1.37 1.34 1.34 1.29 1.28 1.31 1.36 1.40 1.46 1.41 1.40 1.36 1.32 1.30 1.28 1.31 1.31 1.30 1.31 1.23 1.22 1.19 1.25 1.26 1.23 1.19 1.15 1.14 1.19 1.16 1.09 1.05 1.04 1.03 1.02
0.71 0.70 0.70 0.69 0.69 0.69 0.69 0.69 0.70 0.70 0.71 0.74 0.78 0.82 0.87 0.90 0.93 1.00 1.10 1.23 1.30 1.32 1.30 1.30 1.32 1.31 1.28 1.25 1.29 1.29 1.32 1.29 1.31 1.29 1.30 1.33 1.35 1.37 1.36 1.34 1.32 1.28 1.30 1.35 1.35 1.35 1.32 1.26 1.21 1.21 1.25 1.20 1.20 1.18 1.16 1.20 1.21 1.11 1.06 1.07 1.11 1.09 1.00
0.69 0.69 0.68 0.67 0.68 0.68 0.68 0.68 0.69 0.68 0.69 0.70 0.72 0.76 0.80 0.84 0.87 0.91 0.97 1.06 1.18 1.26 1.30 1.34 1.33 1.31 1.29 1.28 1.26 1.34 1.39 1.32 1.33 1.33 1.30 1.33 1.36 1.36 1.34 1.33 1.32 1.29 1.30 1.33 1.31 1.28 1.25 1.25 1.27 1.29 1.30 1.30 1.25 1.18 1.14 1.16 1.17 1.17 1.13 1.08 1.07 1.07 1.03
0.69 0.67 0.68 0.68 0.68 0.67 0.67 0.67 0.67 0.67 0.67 0.68 0.69 0.71 0.73 0.75 0.80 0.85 0.90 0.96 1.02 1.11 1.22 1.30 1.30 1.30 1.30 1.30 1.30 1.30 1.30 1.30 1.33 1.30 1.32 1.29 1.31 1.31 1.32 1.31 1.30 1.30 1.31 1.30 1.29 1.26 1.24 1.26 1.27 1.29 1.31 1.29 1.25 1.19 1.16 1.15 1.18 1.15 1.06 1.09 1.19 1.11 1.11
0.68 0.67 0.68 0.67 0.67 0.67 0.67 0.66 0.66 0.66 0.66 0.66 0.67 0.69 0.68 0.70 0.74 0.78 0.83 0.88 0.94 1.01 1.12 1.19 1.22 1.27 1.30 1.32 1.32 1.30 1.29 1.29 1.29 1.29 1.31 1.32 1.30 1.33 1.31 1.32 1.30 1.28 1.31 1.36 1.34 1.24 1.24 1.28 1.29 1.28 1.28 1.26 1.22 1.21 1.24 1.22 1.19 1.16 1.15 1.11 1.07 1.07 1.04
0.67 0.67 0.66 0.67 0.67 0.67 0.67 0.66 0.65 0.65 0.65 0.67 0.68 0.66 0.66 0.68 0.69 0.72 0.76 0.80 0.87 0.95 1.02 1.10 1.11 1.14 1.20 1.23 1.26 1.28 1.29 1.28 1.29 1.29 1.28 1.26 1.26 1.29 1.32 1.30 1.30 1.29 1.34 1.38 1.39 1.30 1.23 1.21 1.25 1.30 1.30 1.28 1.24 1.21 1.21 1.22 1.26 1.29 1.26 1.15 1.07 1.10 1.10
0.67 0.67 0.67 0.67 0.67 0.66 0.66 0.65 0.66 0.67 0.67 0.67 0.67 0.66 0.67 0.66 0.68 0.69 0.71 0.75 0.81 0.88 0.95 1.01 1.06 1.09 1.13 1.18 1.23 1.26 1.28 1.30 1.34 1.35 1.32 1.32 1.31 1.33 1.33 1.29 1.28 1.27 1.34 1.41 1.44 1.29 1.26 1.23 1.25 1.28 1.27 1.24 1.21 1.18 1.19 1.20 1.19 1.19 1.19 1.15 1.11 1.08 1.18
0.66 0.67 0.67 0.67 0.66 0.65 0.65 0.65 0.66 0.66 0.67 0.66 0.66 0.66 0.66 0.66 0.67 0.68 0.69 0.72 0.76 0.81 0.88 0.95 0.98 1.03 1.08 1.13 1.19 1.22 1.25 1.30 1.33 1.34 1.32 1.36 1.39 1.35 1.32 1.29 1.29 1.34 1.37 1.40 1.36 1.33 1.28 1.25 1.24 1.24 1.24 1.24 1.25 1.21 1.21 1.19 1.16 1.15 1.14 1.16 1.15 1.16 1.19
0.66 0.66 0.65 0.65 0.64 0.64 0.64 0.64 0.64 0.66 0.67 0.67 0.69 0.69 0.69 0.69 0.68 0.68 0.69 0.70 0.71 0.74 0.81 0.87 0.93 0.98 1.03 1.09 1.14 1.18 1.22 1.25 1.28 1.33 1.31 1.32 1.34 1.33 1.31 1.37 1.41 1.40 1.38 1.32 1.30 1.32 1.28 1.28 1.25 1.23 1.24 1.25 1.19 1.22 1.19 1.20 1.24 1.26 1.26 1.25 1.17 1.18 1.18
0.64 0.63 0.64 0.63 0.62 0.62 0.62 0.63 0.65 0.66 0.65 0.66 0.67 0.68 0.68 0.68 0.69 0.69 0.69 0.69 0.69 0.71 0.75 0.80 0.85 0.91 0.98 1.04 1.09 1.13 1.17 1.21 1.23 1.25 1.28 1.32 1.33 1.36 1.32 1.30 1.32 1.35 1.34 1.28 1.32 1.28 1.24 1.22 1.24 1.22 1.20 1.17 1.15 1.12 1.14 1.17 1.17 1.17 1.21 1.25 1.22 1.17 1.16
0.61 0.61 0.61 0.60 0.60 0.61 0.62 0.63 0.64 0.67 0.65 0.64 0.65 0.67 0.69 0.69 0.70 0.70 0.69 0.69 0.70 0.70 0.73 0.77 0.81 0.86 0.91 0.98 1.05 1.09 1.14 1.18 1.21 1.25 1.24 1.30 1.32 1.28 1.32 1.31 1.33 1.34 1.34 1.30 1.30 1.27 1.25 1.23 1.14 1.16 1.13 1.14 1.10 1.05 1.03 1.06 1.08 1.11 1.16 1.17 1.16 1.15 1.14
0.58 0.58 0.58 0.58 0.59 0.59 0.60 0.60 0.62 0.64 0.66 0.66 0.66 0.68 0.70 0.70 0.70 0.71 0.71 0.71 0.72 0.71 0.73 0.76 0.78 0.82 0.88 0.94 1.01 1.07 1.13 1.20 1.23 1.20 1.20 1.20 1.23 1.23 1.26 1.28 1.29 1.28 1.31 1.28 1.25 1.22 1.17 1.14 1.11 1.13 1.08 1.05 0.96 0.90 0.93 0.98 1.00 1.02 1.05 1.06 1.07 1.10 1.10
0.55 0.54 0.54 0.56 0.57 0.57 0.59 0.59 0.59 0.61 0.63 0.65 0.66 0.68 0.69 0.69 0.69 0.71 0.73 0.72 0.72 0.73 0.73 0.74 0.78 0.80 0.85 0.91 0.98 1.05 1.10 1.12 1.11 1.14 1.13 1.15 1.17 1.19 1.22 1.22 1.21 1.20 1.23 1.22 1.20 1.13 1.11 1.14 1.12 1.14 1.10 1.01 0.92 0.85 0.94 0.95 0.97 0.98 0.98 0.98 1.00 1.03 1.03
0.51 0.52 0.52 0.52 0.53 0.54 0.54 0.55 0.57 0.58 0.58 0.61 0.64 0.65 0.67 0.68 0.69 0.70 0.73 0.73 0.73 0.73 0.74 0.75 0.77 0.80 0.83 0.89 0.95 1.01 1.05 1.08 1.11 1.13 1.15 1.18 1.16 1.15 1.17 1.18 1.17 1.16 1.20 1.18 1.13 1.10 1.12 1.14 1.15 1.13 1.07 0.99 0.93 0.95 0.97 0.91 0.91 0.93 0.92 0.91 0.92 0.95 0.98
0.48 0.48 0.49 0.50 0.49 0.50 0.51 0.52 0.54 0.55 0.56 0.57 0.59 0.61 0.63 0.65 0.67 0.69 0.72 0.74 0.74 0.74 0.75 0.76 0.77 0.79 0.82 0.86 0.91 0.95 0.98 1.03 1.08 1.10 1.11 1.12 1.11 1.12 1.15 1.14 1.13 1.16 1.18 1.16 1.12 1.10 1.11 1.12 1.12 1.07 1.01 0.97 0.95 0.96 0.94 0.95 0.96 0.93 0.91 0.89 0.88 0.89 0.88
0.44 0.44 0.44 0.46 0.46 0.47 0.48 0.48 0.49 0.51 0.53 0.53 0.55 0.57 0.59 0.62 0.63 0.65 0.68 0.71 0.74 0.75 0.76 0.77 0.78 0.78 0.80 0.83 0.87 0.90 0.94 0.99 1.04 1.06 1.08 1.08 1.10 1.11 1.13 1.12 1.12 1.13 1.12 1.12 1.13 1.10 1.09 1.10 1.09 1.05 1.01 0.96 0.92 0.93 0.94 0.92 0.90 0.88 0.86 0.85 0.84 0.82 0.82
0.44 0.43 0.42 0.42 0.42 0.43 0.44 0.44 0.45 0.47 0.49 0.51 0.52 0.53 0.55 0.58 0.60 0.60 0.62 0.66 0.70 0.74 0.77 0.77 0.79 0.80 0.81 0.82 0.84 0.87 0.90 0.94 1.00 0.99 1.01 1.04 1.07 1.09 1.09 1.09 1.09 1.10 1.07 1.11 1.10 1.09 1.08 1.07 1.04 1.01 0.98 0.96 0.95 0.97 0.98 0.97 0.94 0.92 0.89 0.87 0.86 0.84 0.84
Wind_Speed
18 18 19 20 21 21 22 22 23 23 23 23 24 24 25 25 25 25 25 26 26 26 26 27 27 26 25 25 26 25 24 23 22 21 20 20 20 20 20 19 18 17 15 14 14 13 12 12 12 13 13 13 13 13 13 12 11 10 10 9 8 8 8
18 19 20 20 21 22 22 23 24 24 23 24 24 24 24 25 25 25 25 25 26 26 25 25 25 25 25 25 26 25 24 23 23 22 22 22 21 20 19 19 19 18 17 16 15 15 14 13 12 13 13 13 13 13 13 13 11 11 10 10 9 9 8
19 20 20 21 22 23 23 24 24 25 24 24 24 24 24 24 25 25 24 24 24 24 24 23 23 23 24 25 25 25 25 24 23 23 23 23 22 20 19 19 19 18 18 17 16 16 15 13 13 13 13 13 13 13 14 13 12 12 11 11 10 10 9
20 21 22 23 23 24 25 25 25 25 25 25 25 24 24 23 23 23 23 22 22 22 22 22 21 21 23 25 25 25 25 24 24 24 24 23 22 21 20 20 19 19 18 17 17 16 15 14 13 13 14 14 14 13 14 14 13 12 12 12 11 10 10
21 22 23 24 24 25 26 26 26 26 26 26 25 24 23 22 22 22 22 21 20 20 20 20 20 19 21 24 25 25 25 24 24 25 25 24 23 21 21 20 20 19 19 18 17 17 16 15 14 14 14 14 14 14 14 14 14 13 13 12 12 11 11
22 22 23 24 24 24 25 25 26 26 26 26 25 24 23 22 22 21 21 20 20 19 18 18 19 20 21 23 24 25 25 24 24 25 25 25 23 22 21 21 21 20 20 19 18 17 17 15 14 14 14 14 14 14 14 14 14 14 13 13 13 12 12
21 22 22 23 23 23 24 25 26 26 26 25 25 24 24 23 22 21 20 20 20 19 19 19 19 20 21 22 24 24 24 24 23 23 24 24 23 23 22 21 21 21 20 20 19 18 17 16 15 15 14 14 14 14 14 14 14 14 14 14 14 13 13
20 21 21 22 22 23 24 25 26 26 26 26 25 24 24 23 22 21 20 20 20 20 19 19 19 19 20 22 23 24 24 24 23 23 23 23 23 23 23 22 22 21 21 20 20 19 18 17 16 16 15 14 14 14 14 14 15 15 15 14 14 14 13
20 20 21 22 23 24 25 25 26 26 26 26 25 23 23 22 22 21 20 20 20 20 20 20 20 20 21 22 23 24 24 24 24 24 24 24 24 24 23 23 22 22 21 21 21 19 18 17 17 17 16 15 15 14 14 14 14 15 15 14 14 14 14
19 20 21 22 23 24 25 25 25 26 26 25 25 24 23 21 21 21 21 20 20 20 21 21 21 21 22 22 23 24 25 25 24 24 24 24 24 24 23 23 23 23 22 22 21 20 19 18 17 17 17 17 16 15 15 15 15 15 15 15 15 15 15
19 20 21 22 23 23 24 24 24 25 25 25 25 25 24 22 21 21 21 21 20 21 21 22 22 22 22 23 24 25 25 25 25 24 24 24 25 24 24 24 24 23 23 22 22 22 21 20 18 18 18 17 17 16 15 15 15 15 16 16 15 15 15
19 20 21 22 23 23 23 24 24 24 24 23 23 24 25 24 22 21 22 21 21 21 22 22 22 22 23 24 24 25 25 25 25 24 24 25 25 25 25 25 25 25 24 23 23 22 21 21 20 19 19 18 18 18 17 15 14 15 15 15 15 15 15
19 20 21 22 22 23 24 24 24 24 24 23 23 23 24 25 24 23 22 22 21 21 22 22 23 23 23 24 24 24 24 25 26 25 25 25 26 26 26 26 26 26 25 24 23 23 22 22 21 21 20 19 19 18 18 16 15 15 15 15 15 16 16
19 20 21 21 22 23 23 24 23 23 24 24 24 24 24 24 25 24 24 23 22 22 22 22 23 24 24 24 25 25 24 25 26 26 26 26 26 27 27 26 26 26 26 25 24 24 24 23 22 22 21 21 20 19 18 17 16 16 16 16 16 16 17
19 20 21 21 21 22 23 23 23 23 24 24 24 24 24 24 25 25 24 24 23 23 23 23 23 24 25 25 26 26 25 25 26 26 26 27 27 27 27 27 27 26 26 26 26 25 24 24 23 23 23 22 21 20 19 18 17 17 16 17 17 17 17
19 20 20 20 21 22 22 22 23 23 23 24 24 24 25 25 25 25 25 25 24 24 24 24 24 24 25 26 26 26 26 26 27 27 27 27 28 28 27 27 27 27 26 27 27 25 24 24 24 23 23 22 22 21 20 19 18 18 17 17 18 18 17
19 20 20 20 21 22 22 22 22 23 23 23 23 24 25 24 24 25 26 26 25 25 24 24 24 25 26 26 26 27 27 27 27 27 27 28 28 28 28 28 28 27 27 27 27 26 25 24 24 24 24 23 22 21 20 20 19 19 18 18 18 18 18
20 20 21 21 21 22 22 22 22 22 22 22 23 23 24 24 23 24 25 26 25 25 25 25 24 25 26 27 27 27 27 27 27 27 27 28 28 28 28 29 28 28 28 28 27 27 26 25 24 24 24 23 23 22 21 21 20 20 19 19 19 19 19
20 21 21 21 22 22 22 22 23 23 22 23 23 22 23 23 23 23 23 24 25 25 25 25 24 24 25 26 26 27 27 27 27 27 27 28 29 28 28 29 28 28 28 28 27 27 27 26 25 24 24 24 24 23 22 21 21 21 21 20 20 19 19
21 21 21 22 22 22 22 23 23 23 23 23 23 23 22 22 22 22 22 23 24 24 25 25 25 24 24 25 26 27 27 28 28 28 28 28 28 28 28 28 28 29 29 29 28 27 26 26 25 25 25 24 24 23 22 22 22 22 22 21 21 20 20
21 21 21 22 22 22 22 23 23 23 23 23 23 23 22 22 22 22 22 23 24 24 25 26 26 25 25 25 26 27 28 28 29 29 29 29 29 29 29 29 29 30 30 29 29 28 27 26 26 25 25 24 23 22 22 23 23 23 22 22 21 21 20
21 21 21 22 22 22 23 23 23 23 23 23 23 22 22 22 22 22 22 23 24 24 25 25 25 25 25 25 25 27 27 28 28 29 29 29 29 29 29 30 30 30 30 29 29 29 28 27 26 26 26 25 24 22 22 22 22 22 22 21 21 21 21
21 21 22 22 23 23 23 23 24 24 24 24 24 23 22 22 23 23 23 23 24 24 24 25 25 26 26 26 25 25 26 26 27 28 29 29 29 29 29 30 30 31 31 30 29 29 28 27 27 27 26 25 25 24 23 23 23 22 21 20 20 21 21
22 22 22 23 23 24 24 24 24 25 25 25 25 24 23 22 22 23 23 23 23 23 24 25 26 27 27 27 27 26 26 26 27 28 29 29 29 29 29 30 29 30 30 30 30 30 29 28 28 27 26 25 25 25 24 24 24 23 22 20 20 20 21
22 23 23 24 24 24 25 25 25 25 25 25 25 25 24 23 23 22 23 23 23 23 23 23 24 26 27 28 28 28 27 26 27 28 29 29 30 29 29 29 29 29 29 30 31 31 30 29 28 28 27 26 25 25 25 24 24 23 23 22 20 20 22
23 23 24 24 25 25 25 25 25 25 25 25 25 25 25 24 23 22 22 23 23 24 24 24 24 24 26 27 28 29 28 27 27 27 28 29 30 30 29 29 29 29 30 30 31 31 30 30 29 29 28 27 26 25 25 25 25 25 24 24 23 22 23
23 24 25 25 25 25 25 25 25 25 25 25 25 25 25 25 24 23 23 22 23 23 24 24 25 25 25 26 27 27 28 28 28 27 28 29 29 30 30 29 29 30 29 29 30 30 30 30 30 29 29 28 27 26 26 26 26 26 26 25 24 24 24
23 24 24 24 24 25 25 25 25 25 25 25 25 25 25 25 24 23 23 23 23 23 24 24 25 26 27 27 27 27 28 29 28 28 28 29 29 30 30 30 29 29 29 28 28 29 29 29 29 29 29 28 27 26 26 26 26 26 26 26 25 25 24
23 23 23 24 24 24 24 25 25 24 24 24 24 24 24 24 24 24 24 23 23 23 24 24 25 26 28 28 28 28 29 29 29 29 29 29 29 30 31 30 29 29 29 29 28 28 28 27 28 28 28 27 26 25 25 26 26 26 25 25 25 24 24
23 23 23 23 24 24 24 24 24 24 24 24 23 23 23 23 23 24 24 24 24 24 24 24 25 26 27 28 29 29 29 30 30 29 29 29 28 28 29 30 30 29 28 28 28 27 27 27 27 26 26 26 25 25 25 25 25 25 24 24 24 24 24
22 22 23 23 23 24 24 24 23 23 23 23 23 22 22 22 22 23 23 23 24 24 24 24 24 25 26 27 28 28 29 29 30 29 28 27 27 26 27 28 30 29 27 27 27 27 27 27 28 27 26 26 25 25 26 26 25 25 24 24 24 24 24
22 22 23 23 23 24 24 24 24 23 23 22 22 22 22 21 21 21 22 22 23 23 23 23 23 24 24 25 26 27 27 27 28 28 27 27 27 27 27 28 28 29 28 27 28 27 27 28 29 29 28 28 27 26 26 26 25 25 25 25 25 24 24
23 23 23 23 24 24 24 24 24 24 23 23 23 22 22 21 21 21 20 20 21 21 21 21 22 22 22 23 23 24 25 25 26 27 27 27 27 27 28 29 28 28 28 28 29 28 27 27 28 28 28 27 27 26 26 26 25 25 25 25 24 24 24
23 23 24 24 24 24 24 24 24 24 24 23 23 23 22 22 21 21 20 20 19 19 20 20 20 20 20 20 21 22 23 24 25 27 27 27 27 26 27 28 29 28 28 28 28 28 28 27 27 27 27 27 26 25 25 25 25 24 24 24 24 23 23
23 23 24 24 24 24 24 24 24 24 24 23 23 23 22 22 22 22 21 20 20 19 19 19 19 19 18 18 18 19 20 22 24 26 27 26 26 25 26 27 28 28 27 27 27 27 27 27 28 28 27 26 26 25 24 24 24 24 23 23 23 23 23
23 23 24 24 24 24 24 24 24 24 24 23 23 22 22 22 22 22 21 20 20 19 18 18 18 17 17 16 16 16 17 19 21 23 26 26 25 25 25 26 26 26 26 25 25 26 26 27 28 28 26 25 25 24 24 24 24 23 23 23 23 22 22
23 23 24 24 24 24 24 24 24 23 23 23 23 22 22 22 22 21 21 20 19 18 17 16 16 16 15 15 14 14 14 15 16 18 21 24 24 24 24 25 25 25 24 24 24 24 25 26 26 26 25 25 25 25 24 24 24 24 23 23 22 22 22
Wind_Direction
291 290 290 290 292 292 291 289 289 290 290 290 289 287 284 281 280 278 277 276 274 272 269 263 258 254 250 245 239 236 234 231 231 232 231 228 228 229 229 231 234 237 236 235 236 236 237 237 237 238 238 238 238 238 236 236 237 238 239 240 240 239 242
293 292 292 292 293 292 291 290 288 289 289 289 290 289 287 284 281 278 277 276 275 273 269 263 256 250 246 241 237 235 234 232 232 233 232 229 228 229 229 230 232 234 234 235 237 238 240 241 239 238 237 237 239 237 235 235 235 237 238 238 238 238 240
293 292 292 291 291 290 290 289 288 287 287 288 289 289 289 287 283 279 277 278 277 273 267 260 252 247 243 238 235 235 233 233 233 234 233 230 228 228 230 230 230 231 233 235 235 237 240 242 241 239 236 236 237 236 234 234 233 235 236 237 237 238 239
292 291 291 290 290 290 289 289 288 287 286 286 287 287 288 288 285 281 278 278 278 273 267 258 248 246 242 236 234 234 233 233 235 235 233 229 227 228 231 231 230 231 232 233 233 235 238 240 240 241 238 235 235 235 234 233 233 234 236 236 236 236 238
291 291 291 291 291 290 290 289 288 287 285 285 286 285 285 286 285 281 279 278 276 273 268 257 248 247 243 236 234 234 234 234 236 236 232 228 227 230 231 231 231 232 233 233 235 236 237 239 240 241 238 234 235 236 234 233 233 235 235 235 236 235 236
293 292 292 293 292 292 291 291 289 288 285 283 283 283 282 283 282 280 278 276 273 270 266 257 252 251 245 238 235 234 233 234 237 235 229 227 229 231 231 231 231 233 233 233 235 235 236 238 239 239 236 234 235 235 233 233 233 235 235 235 236 235 235
295 294 294 294 294 294 293 292 290 289 287 284 281 280 279 280 279 277 276 275 271 267 263 257 253 251 244 237 235 234 233 234 235 231 226 227 231 230 231 232 232 233 233 233 233 235 235 235 235 237 236 234 233 232 232 233 233 233 234 235 236 235 236
297 295 295 296 295 295 295 294 292 290 288 285 282 279 277 275 275 274 273 272 269 265 261 256 252 249 243 237 235 235 234 234 234 230 228 230 231 230 231 232 232 233 233 232 233 235 235 234 234 236 236 234 232 231 232 233 232 232 232 234 235 236 236
298 297 296 297 297 296 296 295 294 291 289 286 281 279 278 274 270 270 271 270 267 263 259 255 250 248 244 239 237 236 235 234 234 233 233 233 232 231 232 233 232 232 233 232 233 233 234 235 236 236 235 232 231 232 233 234 234 233 233 233 235 236 236
299 298 297 298 299 298 297 296 295 292 290 286 280 277 280 277 270 268 269 270 266 262 258 254 251 249 246 242 240 237 235 234 234 234 235 234 232 232 233 233 232 232 233 232 232 232 234 236 237 236 234 232 232 233 234 235 236 235 234 233 236 237 236
299 298 298 298 299 298 298 298 296 293 291 288 281 275 275 278 274 268 268 269 267 263 259 254 252 250 247 245 241 237 234 233 234 236 236 234 232 231 233 233 233 232 232 232 232 232 233 234 235 235 233 232 233 235 235 236 237 235 234 234 237 238 237
301 300 300 299 299 298 299 299 298 296 293 290 286 278 273 274 275 270 266 267 266 263 260 255 252 251 249 246 243 239 236 235 235 236 236 234 232 231 233 234 234 233 232 232 231 231 232 233 233 233 233 233 234 235 235 239 240 237 236 236 238 239 238
304 303 302 301 300 298 298 299 298 297 294 291 288 283 277 273 271 270 266 265 265 263 260 256 253 250 249 247 244 241 238 237 236 235 236 234 232 233 234 236 235 233 232 231 231 232 232 233 234 233 232 234 234 234 235 239 242 240 241 242 241 240 239
307 306 305 303 303 301 300 299 297 295 295 293 289 287 283 276 270 268 265 264 263 262 261 258 254 250 248 247 245 243 241 239 237 236 236 235 234 234 235 236 235 234 232 231 232 233 232 233 234 233 233 235 235 234 235 237 241 242 242 243 243 242 240
309 309 308 307 306 306 305 302 299 296 294 293 291 289 286 280 273 268 265 263 263 262 261 259 255 251 248 247 246 245 243 241 238 238 237 236 235 234 234 235 234 233 233 232 232 232 232 232 233 233 234 235 234 235 236 238 242 244 243 242 242 242 240
310 311 310 309 308 308 308 306 303 300 296 294 292 290 288 284 276 269 265 264 264 262 262 260 255 252 249 247 246 245 244 242 240 238 238 236 234 233 234 234 233 233 234 233 231 231 232 232 233 233 234 233 232 234 237 239 242 243 242 241 241 241 241
311 312 311 310 310 310 310 309 307 305 301 297 294 292 289 286 281 272 264 262 263 263 262 261 258 254 250 248 247 245 243 242 240 239 238 237 235 234 234 234 234 233 232 231 230 231 232 232 232 234 234 233 232 234 237 240 240 242 242 241 241 242 240
310 311 311 310 311 311 310 310 309 308 304 300 298 296 292 288 284 277 265 261 263 263 261 262 261 256 252 249 247 244 241 241 241 241 240 238 237 236 235 234 234 232 231 231 232 232 232 231 231 233 233 232 232 235 238 240 240 240 242 241 241 241 240
310 310 310 310 310 311 310 310 309 308 306 303 301 299 296 291 286 281 270 263 265 264 261 262 263 260 256 252 248 245 242 242 243 243 242 240 238 236 236 234 233 232 231 231 232 232 231 231 231 232 232 232 234 236 238 240 240 240 241 240 240 240 239
309 309 308 309 309 310 310 310 310 309 308 306 302 300 298 295 289 283 275 268 267 267 263 262 262 262 259 255 251 248 245 244 244 244 243 240 238 236 236 234 232 232 231 231 232 232 231 231 231 232 232 233 236 238 238 238 239 239 239 239 239 239 239
307 307 307 308 308 309 309 310 310 309 309 308 305 300 298 297 292 285 278 273 270 270 267 263 261 261 260 257 253 251 249 246 245 244 243 242 240 238 237 235 234 233 232 233 233 231 230 231 231 232 233 234 238 240 238 239 240 239 239 239 239 238 238
305 306 307 307 308 309 309 309 310 309 309 309 307 303 298 296 293 289 284 278 274 273 270 265 261 260 259 257 256 254 250 247 245 244 244 242 241 240 238 237 236 234 233 233 231 229 230 232 232 233 234 234 236 239 241 241 240 238 239 241 238 236 237
304 305 306 306 307 308 308 309 309 309 308 307 307 305 300 296 292 290 287 283 279 276 272 266 263 262 259 256 256 256 252 249 247 246 245 243 241 240 238 236 236 234 233 232 230 229 231 232 232 233 234 234 235 238 240 239 237 238 241 242 238 235 237
304 304 305 305 305 306 307 307 308 309 307 306 306 305 303 299 294 290 287 285 281 279 275 270 266 264 261 256 255 256 255 253 249 247 246 243 241 239 237 236 236 235 234 232 230 230 231 231 230 231 233 236 238 239 238 237 237 239 240 240 238 236 237
305 305 305 305 305 305 306 306 308 309 308 307 306 305 304 302 297 292 288 285 282 278 276 276 272 268 264 259 255 255 256 254 251 248 245 243 242 240 237 236 236 235 234 232 230 230 231 230 230 232 234 237 238 238 238 238 238 238 236 237 239 238 236
304 305 305 305 305 305 305 306 307 308 308 308 307 306 305 303 300 296 290 286 283 278 275 276 277 273 268 263 258 255 254 254 252 248 244 243 242 239 238 238 237 235 233 232 230 231 231 231 232 233 235 237 237 237 237 238 239 239 239 239 240 239 237
304 304 305 305 305 305 305 305 306 306 306 308 308 307 306 304 302 299 295 289 285 280 276 275 276 275 271 266 262 257 254 253 251 248 245 244 242 239 238 239 237 234 232 231 231 232 232 232 232 233 235 237 238 237 237 237 239 241 243 242 241 240 240
303 304 304 305 305 305 306 306 306 305 305 306 307 307 306 305 303 301 299 294 289 284 280 277 275 274 271 268 265 260 256 254 252 249 247 245 242 240 239 238 236 233 232 233 234 234 232 232 232 234 235 236 237 237 237 239 240 242 242 242 242 241 241
303 303 303 304 305 305 305 305 306 305 304 304 306 307 306 305 304 302 300 298 294 289 285 282 278 274 271 269 266 262 258 255 252 249 247 245 244 242 238 235 235 235 235 236 235 233 232 232 232 233 233 233 234 236 237 239 240 242 241 240 240 240 240
303 303 304 304 304 304 305 305 304 304 303 303 304 305 305 305 304 303 301 300 297 293 290 287 283 278 273 269 266 262 259 256 252 248 247 245 244 241 237 234 233 235 236 234 231 229 230 230 230 231 230 230 232 235 237 239 240 241 241 240 239 239 238
305 304 304 304 304 303 304 304 304 303 302 302 302 302 303 303 304 304 302 301 299 296 293 291 289 284 277 272 267 262 259 256 251 247 244 242 240 238 237 235 234 234 235 234 230 229 231 232 231 231 230 230 232 236 239 240 240 240 240 239 239 239 239
306 305 305 305 304 303 302 303 304 303 302 301 301 301 300 300 303 304 302 301 301 299 296 293 292 289 283 278 272 265 260 256 250 245 242 240 238 239 239 237 235 234 234 234 233 232 234 237 236 234 234 235 236 238 239 239 239 239 240 240 239 240 240
305 305 305 305 305 304 302 302 303 304 303 301 300 300 300 300 301 302 303 303 303 303 301 298 296 293 288 284 278 270 261 254 248 245 243 241 240 242 241 238 236 235 236 236 236 234 236 238 236 234 235 236 236 236 238 238 239 239 240 240 240 240 240
305 304 304 304 305 305 304 302 302 302 303 302 301 301 301 301 301 300 302 303 303 305 306 304 302 299 294 289 284 274 264 255 248 244 242 240 241 243 242 239 235 235 236 237 236 236 236 236 235 235 236 236 236 237 237 238 238 239 239 239 239 239 241
306 305 304 304 305 305 305 304 303 302 302 302 302 301 301 301 301 301 301 302 302 302 305 306 305 304 301 295 287 278 268 259 252 246 241 239 240 241 240 237 235 235 236 236 236 236 236 235 236 237 238 237 237 237 237 237 237 238 238 239 238 239 240
307 306 306 306 305 305 305 305 304 303 302 302 302 302 301 300 300 301 301 301 301 300 302 303 304 305 304 300 292 283 272 263 257 250 243 239 240 240 236 234 233 233 234 235 236 237 237 236 236 236 236 236 236 237 237 237 237 237 237 238 238 239 240
307 307 308 307 306 305 305 305 305 304 303 302 301 301 300 299 299 299 300 299 299 299 299 300 302 303 304 303 298 291 279 268 260 252 244 239 239 238 234 232 232 232 232 234 236 237 237 236 235 235 235 236 236 237 236 236 237 237 237 237 239 241 242